COSMOS 2251 DEB

Satellite information

Favourite Embed

Satellite Type and Status

DEBRISIN ORBIT

Key statistics

Satellite COSMOS 2251 DEB at a glance.

Uptime

11767

Days in orbit

Revolutions

≈ 14.2

Per day

Orbit

LEO

Low Earth Orbit

Inclination

73.8

Latest

Satellite identification and parameters

Extended collection of information and parameters for COSMOS 2251 DEB.

Object identification

Identified? True

Debris? True

Object name: COSMOS 2251 DEB

International designator: 1993-036CV

Object number (NORAD): 33892

Object ID (CCSDS): 33892

Country: COMMONWEALTH OF INDEPENDENT STATES (CIS)

Current information (Y/N): Y

RCS size: SMALL

Orbital parameters

Period: 101.208 minutes

Inclination: 73.8017 deg

SMA: 7193.976 km

Apoapsis: 899.775 km

Periapsis: 731.906 km

RAAN: 286.6076 deg

Eccentricy: 0.01166737

Argument of periapsis: 335.0759 deg

Mean anomaly: 142.831 deg

Mean motion: 14.22817911 rev/day

Mean motion (dot): 0.00002234 rev/day2

B* drag term: 0.00093967988 1/REarth

Two-line elements (TLE)

Creation date: Sept. 2, 2025, 11:42 p.m.

Reference frame: TEME

Reference center: EARTH

Epoch: Sept. 2, 2025, 12:50 p.m. UTC

TLE line 0: 0 COSMOS 2251 DEB

TLE line 1: 1 33892U 93036CV 25245.53501626 .00002234 00000-0 93968-3 0 9991

TLE line 2: 2 33892 73.8017 286.6076 0116674 335.0759 142.8310 14.22817911855154

Live tracking on map

Real-time ground track for satellite COSMOS 2251 DEB.

In-orbit conjunctions

A list of the most updated potential collisions computed for object COSMOS 2251 DEB.

Target Orbit TCA Probability of collision Miss distance Type
FENGYUN 1C DEB SSO 2024-09-28 01:31:02 0.0001469368 277.0 (m) DEBRIS
FENGYUN 1C DEB SSO 2024-07-02 20:12:06 0.0001106751 227.0 (m) DEBRIS
CZ-4 DEB SSO 2024-06-12 08:33:35 0.0002651203 161.0 (m) DEBRIS

Associated space launch

Military communications satellite. Destroyed in a collision with Iridium 33.

COSMOS 2251 DEB was lifted into orbit during the mission ‘Kosmos-3M | Strela-2M 51’, on board a Kosmos-3M space rocket.

The launch took place on June 16, 1993, 4:17 a.m. from 132/1 (132L).

For more information about the launch, click the button.

Launch to space Kosmos-3M | Strela-2M 51
Kosmos-3M | Strela-2M 51

Agency: N/A

Status: Launch Successful

Launch date: June 16, 1993, 4:17 a.m. UTC

Rocket: Kosmos-3M

Launch pad: 132/1 (132L)

Location: Plesetsk Cosmodrome, Russian Federation

...

Latest news about this satellite

There are no fresh news available about this satellite. Check back as we update our databases every day.


Newsletter sign-up

Weekly statistics, charts and insights to help you stay on top of the space industry.